Weather History for KBUR - July, 2013

Change the Weather History Date:

Friday, July 26, 2013

  Actual Average Record
Temperature  
Mean Temperature 77 °F 75 °F  
Max Temperature 88 °F 87 °F 108 °F (1943)
Min Temperature 66 °F 63 °F 55 °F (1983)
Degree Days  
Heating Degree Days 0 0  
Month to date heating degree days 0 0  
Since 1 June heating degree days 0 13  
Since 1 July heating degree days 0 0  
Cooling Degree Days 12 10  
Month to date cooling degree days 354 242  
Year to date cooling degree days 964 514  
Since 1 June cooling degree days 635 390  
Growing Degree Days 26 (Base 50)    
Moisture  
Dew Point 60 °F    
Average Humidity 57    
Maximum Humidity 73    
Minimum Humidity 40    
Precipitation  
Precipitation 0.01 in 0.00 in 0.02 in (1941)
Month to date precipitation 0.01 0.02  
Year to date precipitation 2.61 12.57  
Since 1 July precipitation 0.01  
Sea Level Pressure  
Sea Level Pressure 29.99 in    
Wind  
Wind Speed 5 mph (SE)    
Max Wind Speed 14 mph    
Max Gust Speed 18 mph    
Visibility 10 miles    
Events Rain    
T = Trace of Precipitation, MM = Missing Value Source: NWS Daily Summary

Daily Weather History Graph

Daily Weather History Graph

Search for Another Location

Airport or City:

Trip Planner

Search our weather history database for the weather conditions in past years. The results will help you decide how hot, cold, wet, or windy it might be!

Date:

Astronomy

Jul. 26, 2013 Rise Set
Actual Time 6:00 AM PDT 7:59 PM PDT
Civil Twilight 5:32 AM PDT 8:26 PM PDT
Nautical Twilight 4:58 AM PDT 9:00 PM PDT
Astronomical Twilight 4:22 AM PDT 9:36 PM PDT
Moon 10:32 PM PDT (7/26) 10:26 AM PDT (7/26)
Length of Visible Light 14h 54m
Length of Day
13h 58m
Waning Gibbous, 79% of the Moon is Illuminated
Jul 26
Waning Gibbous
Jul 29
Last Quarter
Aug 6
New
Aug 14
First Quarter
Aug 20
Full

Hourly Weather History & Observations

Time (PDT) Temp. Heat Index Dew Point Humidity Pressure Visibility Wind Dir Wind Speed Gust Speed Precip Events Conditions
12:53 AM 71.1 °F - 57.9 °F 63% 29.97 in 10.0 mi Calm Calm - N/A   Clear
1:53 AM 68.0 °F - 59.0 °F 73% 29.97 in 10.0 mi SE 3.5 mph - N/A   Clear
2:27 AM 69.8 °F - 57.2 °F 64% 30.00 in 10.0 mi Calm Calm - N/A   Clear
2:28 AM 69.8 °F - 57.2 °F 64% 30.00 in 10.0 mi Calm Calm - N/A   Clear
2:53 AM 69.1 °F - 57.9 °F 68% 29.96 in 10.0 mi Calm Calm - N/A   Clear
3:53 AM 70.0 °F - 57.9 °F 65% 29.96 in 10.0 mi Calm Calm - N/A   Scattered Clouds
4:53 AM 69.1 °F - 60.1 °F 73% 29.97 in 10.0 mi SE 5.8 mph - 0.01 in Rain Light Rain
5:53 AM 66.0 °F - 59.0 °F 78% 29.99 in 10.0 mi SE 4.6 mph - 0.00 in   Clear
6:53 AM 68.0 °F - 59.0 °F 73% 30.01 in 10.0 mi Calm Calm - N/A   Mostly Cloudy
7:19 AM 68.0 °F - 59.0 °F 73% 30.04 in 10.0 mi Calm Calm - N/A   Clear
7:53 AM 69.1 °F - 59.0 °F 70% 30.01 in 10.0 mi South 3.5 mph - N/A   Partly Cloudy
8:53 AM 71.1 °F - 60.1 °F 68% 30.04 in 10.0 mi SSE 3.5 mph - 0.00 in   Clear
9:53 AM 73.9 °F - 60.1 °F 62% 30.06 in 10.0 mi SSE 4.6 mph - N/A   Partly Cloudy
10:53 AM 77.0 °F - 60.1 °F 56% 30.06 in 10.0 mi SE 4.6 mph - N/A   Clear
11:53 AM 80.1 °F 80.9 °F 60.1 °F 50% 30.02 in 10.0 mi WSW 8.1 mph - N/A   Clear
12:53 PM 84.0 °F 84.4 °F 61.0 °F 46% 30.00 in 10.0 mi SE 4.6 mph - N/A   Clear
1:53 PM 81.0 °F 81.9 °F 62.1 °F 52% 29.99 in 10.0 mi SSE 8.1 mph - N/A   Clear
2:53 PM 81.0 °F 81.7 °F 61.0 °F 50% 29.99 in 10.0 mi ESE 10.4 mph - N/A   Clear
3:53 PM 82.9 °F 83.3 °F 61.0 °F 47% 29.98 in 10.0 mi East 6.9 mph - N/A   Partly Cloudy
4:53 PM 84.9 °F 85.0 °F 61.0 °F 44% 29.96 in 10.0 mi ESE 5.8 mph - N/A   Scattered Clouds
5:53 PM 87.1 °F 87.0 °F 61.0 °F 41% 29.94 in 10.0 mi SSE 4.6 mph - N/A   Scattered Clouds
6:53 PM 86.0 °F 86.1 °F 61.0 °F 43% 29.93 in 10.0 mi SSE 5.8 mph - N/A   Clear
7:53 PM 80.1 °F 80.9 °F 60.1 °F 50% 29.94 in 10.0 mi SE 8.1 mph - N/A   Clear
8:53 PM 75.9 °F - 59.0 °F 56% 29.96 in 10.0 mi SE 9.2 mph - N/A   Clear
9:53 PM 75.0 °F - 59.0 °F 57% 29.97 in 10.0 mi ESE 6.9 mph - N/A   Clear
10:53 PM 73.0 °F - 59.0 °F 61% 29.98 in 10.0 mi SE 8.1 mph - N/A   Clear
11:53 PM 72.0 °F - 59.0 °F 64% 29.98 in 10.0 mi East 8.1 mph - N/A   Clear